Weather in Khulimsunt

Russia / Khanty-Mansi Autonomous Okrug — Yugra     62°52′07″N   61°38′02″E
temp.,
°C
wind,
m/s
gust,
m/s
humid.,
%
clouds,
%
prec.,
mm/h
press.,
hPa
HPBL,
m
14 april, wed
wed1423:00+6sw51583100 0.0 1021737
02:00+7wsw41291100 0.0 1019642
05:00+6wsw31094100 0.1 1020338
08:00+6sw2797100 0.2 1021200
11:00+10wsw4784100 0.2 1021635
14:00+8sw41192100 0.0 1021585
17:00+11sw51484100 0.1 1018761
20:00+9wsw4108534 0.0 1017416
15 april, thu
thu1523:00+9sw51687100 0.0 1014646
02:00+11sw61877100 0.0 1011748
05:00+10sw61672100 0.0 1010748
08:00+10wsw7167594 0.0 10091360
11:00+6wnw6126898 0.3 1012986
14:00+8nw6105394 0.0 10141923
17:00+6nw51052100 0.0 10161725
20:00+4nw4958100 0.0 1018689
16 april, fri
fri1623:00+1wnw411664 0.0 1020771
02:00−1n587980 0.0 1022694
05:00−3n26610 0.1 1027376
08:00−1nne12460 0.0 1029631
11:00+2ssw22365 0.0 1029971
14:00+4sw473195 0.0 10261695
17:00+5wsw51038100 0.0 10232010
20:00+3wsw51353100 0.0 10201446
17 april, sat
sat1723:00+2w51278100 0.1 1017973
02:000wnw612651 0.1 1017960
05:00−3nw511610 0.1 1019769
08:00−1nnw47490 0.0 1021827
11:00+2nnw2340100 0.0 10211466
14:00+3sw1333100 0.0 10191963
17:00+2wsw3450100 0.1 10161423
20:00−1nnw2481100 0.3 1015367
18 april, sun
sun1823:00−4ene499096 1.0 1017491
02:00−5ne61187100 0.6 1020776
05:00−6ne4847100 0.8 1025901
08:00−6ne464154 0.0 1029978
11:00−3nne45355 0.0 10311392
14:00−1nne363185 0.0 10321999
17:00−1n4731100 0.0 10332373
20:00−3n254245 0.0 1034139